period_start,C,m1,H,J0,J1,J2,J3,J4,J5,JA,JB,JC,JD,JJ,JK,JN,#
2017-11-08 00:04:02,0.08,3.71,0.00,14.19,17.37,20.57,14.26,48.02,1011.76,2066.33,2336.60,2266.91,2571.42,600.05,611.42,50.51,0000 0000 0000 0000 000000
2017-11-08 00:09:03,0.10,3.72,0.00,14.20,17.37,20.57,14.34,48.01,1011.87,2066.32,2335.25,2265.93,2570.31,600.49,611.94,50.56,0000 0000 0000 0000 000000
2017-11-08 00:14:04,0.09,3.72,0.00,14.22,17.38,20.58,14.29,48.08,1012.10,2066.21,2333.88,2265.00,2569.14,599.85,611.30,50.61,0000 0000 0000 0000 000000
2017-11-08 00:19:06,0.10,3.73,0.00,14.21,17.39,20.58,14.34,48.06,1012.18,2066.15,2332.48,2264.06,2568.01,599.84,611.42,50.66,0000 0000 0000 0000 000000
2017-11-08 00:24:07,0.10,3.73,0.00,14.22,17.39,20.58,14.30,48.04,1012.18,2066.13,2331.18,2263.09,2566.82,600.09,611.75,50.71,0000 0000 0000 0000 000000
2017-11-08 00:29:08,0.11,3.74,0.00,14.22,17.40,20.59,14.34,48.13,1012.05,2066.11,2329.83,2262.11,2565.77,600.04,611.49,50.76,0000 0000 0000 0000 000000
2017-11-08 00:34:09,0.09,3.74,0.00,14.23,17.42,20.58,14.35,48.20,1012.04,2066.08,2328.51,2261.26,2564.64,600.22,611.50,50.81,0000 0000 0000 0000 000000
2017-11-08 00:39:10,0.10,3.75,0.00,14.23,17.42,20.60,14.31,48.16,1012.04,2066.03,2327.06,2260.17,2563.47,599.81,611.25,50.86,0000 0000 0000 0000 000000
2017-11-08 00:44:12,0.12,3.76,0.00,14.24,17.42,20.61,14.34,48.20,1012.11,2066.03,2325.62,2259.11,2562.14,599.83,611.26,50.91,0000 0000 0000 0000 000000
2017-11-08 00:49:13,0.10,3.76,0.00,14.24,17.44,20.62,14.28,48.34,1012.18,2066.03,2324.25,2258.13,2560.95,599.75,611.19,50.96,0000 0000 0000 0000 000000
2017-11-08 00:54:14,0.10,3.77,0.00,14.25,17.44,20.61,14.38,48.26,1012.13,2066.01,2322.93,2257.19,2559.85,600.08,611.50,51.02,0000 0000 0000 0000 000000
2017-11-08 00:59:15,0.09,3.77,0.00,14.26,17.44,20.62,14.31,48.31,1012.09,2066.00,2321.71,2256.36,2558.98,599.56,611.10,51.07,0000 0000 0000 0000 000000
2017-11-08 01:04:17,0.10,3.78,0.00,14.24,17.46,20.61,14.32,48.27,1011.95,2066.01,2320.45,2255.46,2557.97,599.90,611.13,51.12,0000 0000 0000 0000 000000
2017-11-08 01:09:18,0.09,3.78,0.00,14.24,17.47,20.65,14.30,48.28,1012.06,2066.00,2319.23,2254.54,2556.87,599.44,610.94,51.17,0000 0000 0000 0000 000000
2017-11-08 01:14:20,0.09,3.79,0.00,14.24,17.47,20.64,14.34,48.21,1012.00,2066.00,2317.88,2253.68,2555.83,600.02,611.44,51.22,0000 0000 0000 0000 000000
2017-11-08 01:19:21,0.08,3.79,0.00,14.22,17.47,20.64,14.36,48.24,1012.09,2066.00,2316.70,2252.87,2554.84,600.12,611.67,51.27,0000 0000 0000 0000 000000
2017-11-08 01:24:22,0.08,3.80,0.00,14.22,17.48,20.66,14.35,48.23,1012.22,2066.00,2315.63,2252.04,2553.93,599.76,611.39,51.32,0000 0000 0000 0000 000000
2017-11-08 01:29:24,0.09,3.80,0.00,14.22,17.49,20.67,14.34,48.17,1012.23,2066.00,2314.48,2251.22,2552.98,600.17,611.78,51.37,0000 0000 0000 0000 000000
2017-11-08 01:34:25,0.09,3.80,0.00,14.22,17.49,20.70,14.31,48.08,1012.22,2065.99,2313.40,2250.48,2552.06,600.26,611.85,51.42,0000 0000 0000 0000 000000
2017-11-08 01:39:26,0.08,3.81,0.00,14.23,17.49,20.67,14.33,48.15,1012.23,2065.99,2312.27,2249.77,2551.11,600.04,611.51,51.47,0000 0000 0000 0000 000000
2017-11-08 01:44:28,0.08,3.81,0.00,14.24,17.49,20.70,14.36,48.16,1012.22,2065.99,2311.09,2248.95,2550.11,600.10,611.64,51.52,0000 0000 0000 0000 000000
2017-11-08 01:49:29,0.09,3.82,0.00,14.24,17.49,20.70,14.36,48.21,1012.22,2065.99,2309.92,2248.08,2549.14,600.11,611.53,51.57,0000 0000 0000 0000 000000
2017-11-08 01:54:30,0.09,3.82,0.00,14.24,17.50,20.69,14.42,48.20,1012.22,2065.98,2308.86,2247.36,2548.22,600.06,611.62,51.62,0000 0000 0000 0000 000000
2017-11-08 01:59:32,0.08,3.83,0.00,14.24,17.51,20.70,14.31,48.27,1012.22,2065.98,2307.81,2246.68,2547.41,600.13,611.46,51.67,0000 0000 0000 0000 000000
2017-11-08 02:04:33,0.07,3.83,0.00,14.23,17.52,20.69,14.34,48.51,1012.22,2065.99,2306.78,2245.93,2546.53,600.13,611.76,51.72,0000 0000 0000 0000 000000
2017-11-08 02:09:34,0.10,3.84,0.00,14.23,17.52,20.67,14.32,48.29,1012.22,2065.99,2305.56,2245.06,2545.46,599.87,611.48,51.77,0000 0000 0000 0000 000000
2017-11-08 02:14:35,0.09,3.84,0.00,14.22,17.52,20.69,14.36,48.31,1012.19,2065.98,2304.51,2244.26,2544.56,600.04,611.61,51.82,0000 0000 0000 0000 000000
2017-11-08 02:19:36,0.08,3.84,0.00,14.21,17.52,20.72,14.33,48.19,1012.21,2065.98,2303.35,2243.51,2543.65,599.99,611.61,51.87,0000 0000 0000 0000 000000
2017-11-08 02:24:37,0.07,3.85,0.00,14.20,17.52,20.69,14.26,48.06,1012.21,2065.98,2302.37,2242.79,2542.64,599.33,610.87,51.92,0000 0000 0000 0000 000000
2017-11-08 02:29:38,0.07,3.85,0.00,14.21,17.52,20.67,14.36,48.06,1012.22,2065.97,2301.24,2242.02,2541.76,600.25,611.87,51.97,0000 0000 0000 0000 000000
2017-11-08 02:34:40,0.08,3.86,0.00,14.22,17.52,20.69,14.36,48.12,1012.22,2065.97,2300.17,2241.17,2540.91,599.85,611.44,52.03,0000 0000 0000 0000 000000
2017-11-08 02:39:41,0.07,3.86,0.00,14.24,17.52,20.73,14.34,48.17,1012.23,2065.98,2299.26,2240.69,2540.05,600.13,611.75,52.08,0000 0000 0000 0000 000000
2017-11-08 02:44:42,0.07,3.87,0.00,14.25,17.53,20.73,14.25,48.09,1012.30,2065.97,2298.14,2239.95,2539.14,599.49,611.06,52.13,0000 0000 0000 0000 000000
2017-11-08 02:49:44,0.09,3.87,0.00,14.27,17.53,20.71,14.38,48.33,1012.33,2065.97,2297.02,2239.12,2538.20,600.65,612.22,52.18,0000 0000 0000 0000 000000
2017-11-08 02:54:45,0.08,3.87,0.00,14.28,17.54,20.70,14.32,48.23,1012.46,2065.98,2296.01,2238.59,2537.29,599.48,611.07,52.23,0000 0000 0000 0000 000000
2017-11-08 02:59:46,0.07,3.88,0.00,14.29,17.54,20.72,14.34,48.19,1012.54,2065.96,2294.92,2237.91,2536.38,599.97,611.76,52.28,0000 0000 0000 0000 000000
2017-11-08 03:04:48,0.08,3.88,0.00,14.30,17.54,20.70,14.35,48.30,1012.49,2065.97,2293.85,2237.06,2535.51,599.93,611.78,52.33,0000 0000 0000 0000 000000
2017-11-08 03:09:49,0.09,3.89,0.00,14.32,17.54,20.74,14.35,48.27,1012.28,2065.96,2292.75,2236.29,2534.62,600.22,611.61,52.38,0000 0000 0000 0000 000000
2017-11-08 03:14:51,0.08,3.89,0.00,14.31,17.54,20.74,14.28,48.08,1012.33,2065.94,2291.69,2235.67,2533.74,599.84,611.27,52.43,0000 0000 0000 0000 000000
2017-11-08 03:19:52,0.08,3.89,0.00,14.32,17.55,20.72,14.31,48.19,1012.48,2065.94,2290.54,2234.87,2532.78,599.56,611.09,52.48,0000 0000 0000 0000 000000
2017-11-08 03:24:53,0.08,3.90,0.00,14.32,17.56,20.72,14.26,48.12,1012.33,2065.92,2289.44,2234.05,2531.86,600.42,611.82,52.53,0000 0000 0000 0000 000000
2017-11-08 03:29:55,0.08,3.90,0.00,14.32,17.57,20.74,14.35,48.22,1012.40,2065.92,2288.30,2233.30,2530.93,599.71,611.19,52.58,0000 0000 0000 0000 000000
2017-11-08 03:34:56,0.08,3.91,0.00,14.32,17.57,20.76,14.33,48.36,1012.32,2065.89,2287.27,2232.62,2529.99,599.68,611.12,52.63,0000 0000 0000 0000 000000
2017-11-08 03:39:57,0.07,3.91,0.00,14.32,17.57,20.77,14.33,48.27,1012.30,2065.88,2286.06,2231.89,2529.07,599.99,611.38,52.68,0000 0000 0000 0000 000000
2017-11-08 03:44:58,0.08,3.92,0.00,14.34,17.57,20.76,14.34,48.33,1012.32,2065.83,2284.97,2231.05,2528.16,599.80,610.99,52.73,0000 0000 0000 0000 000000
2017-11-08 03:49:59,0.08,3.92,0.00,14.33,17.58,20.77,14.34,48.25,1012.28,2065.77,2283.88,2230.23,2527.32,600.04,611.46,52.78,0000 0000 0000 0000 000000
2017-11-08 03:55:00,0.07,3.92,0.00,14.33,17.59,20.75,14.34,48.41,1012.22,2065.53,2282.67,2229.48,2526.17,600.12,611.47,52.83,0000 0000 0000 0000 000000
2017-11-08 04:00:02,0.15,3.93,0.00,14.34,17.59,20.80,14.29,48.67,1012.20,2065.71,2281.15,2228.36,2524.86,599.70,611.07,52.88,0000 0000 0000 0000 000000
2017-11-08 04:05:03,0.11,3.94,0.00,14.33,17.59,20.77,14.40,48.58,1012.22,2065.76,2279.68,2227.25,2523.53,600.24,611.59,52.93,0000 0000 0000 0000 000000
2017-11-08 04:10:04,0.11,3.95,0.00,14.34,17.59,20.78,14.41,48.60,1012.22,2065.74,2278.28,2226.05,2522.19,599.95,611.29,52.99,0000 0000 0000 0000 000000
2017-11-08 04:15:05,0.08,3.95,0.00,14.33,17.59,20.77,14.29,48.51,1012.22,2065.49,2276.93,2225.00,2520.94,599.99,611.31,53.04,0000 0000 0000 0000 000000
2017-11-08 04:20:07,0.12,3.95,0.00,14.32,17.59,20.77,14.34,48.55,1012.22,2065.46,2275.61,2224.03,2519.76,599.90,611.43,53.09,0000 0000 0000 0000 000000
2017-11-08 04:25:08,0.10,3.96,0.00,14.31,17.60,20.79,14.30,48.43,1012.24,2065.54,2274.45,2223.09,2518.66,599.65,611.15,53.14,0000 0000 0000 0000 000000
2017-11-08 04:30:09,0.09,3.97,0.00,14.29,17.60,20.79,14.38,48.42,1012.30,2065.51,2273.23,2222.12,2517.46,600.22,611.54,53.19,0000 0000 0000 0000 000000
2017-11-08 04:35:10,0.08,3.97,0.00,14.29,17.61,20.81,14.37,48.32,1012.33,2065.36,2272.09,2221.23,2516.31,599.79,611.27,53.24,0000 0000 0000 0000 000000
2017-11-08 04:40:12,0.14,3.98,0.00,14.27,17.61,20.79,14.33,48.36,1012.60,2065.58,2270.86,2220.28,2515.26,599.89,611.52,53.29,0000 0000 0000 0000 000000
2017-11-08 04:45:13,0.06,3.98,0.00,14.28,17.61,20.78,14.32,48.45,1012.63,2065.44,2269.67,2219.48,2514.25,599.89,611.52,53.34,0000 0000 0000 0000 000000
2017-11-08 04:50:14,0.09,3.99,0.00,14.29,17.61,20.78,14.38,48.40,1012.70,2065.52,2268.71,2218.71,2513.35,599.85,611.51,53.39,0000 0000 0000 0000 000000
2017-11-08 04:55:16,0.06,3.99,0.00,14.29,17.61,20.75,14.36,48.38,1012.71,2065.31,2267.58,2217.89,2512.33,600.21,611.89,53.44,0000 0000 0000 0000 000000
2017-11-08 05:00:17,0.09,3.99,0.00,14.29,17.61,20.79,14.37,48.35,1012.63,2065.24,2266.46,2217.05,2511.38,600.27,612.00,53.49,0000 0000 0000 0000 000000
2017-11-08 05:05:18,0.13,4.00,0.00,14.29,17.61,20.77,14.37,48.53,1012.32,2065.61,2265.33,2216.26,2510.39,599.81,611.58,53.54,0000 0000 0000 0000 000000
2017-11-08 05:10:20,0.09,4.01,0.00,14.29,17.61,20.79,14.35,48.52,1012.23,2065.46,2263.92,2215.19,2509.17,599.82,611.24,53.59,0000 0000 0000 0000 000000
2017-11-08 05:15:21,0.16,4.01,0.00,14.30,17.60,20.79,14.32,48.67,1012.23,2065.59,2262.57,2214.11,2507.80,600.00,611.38,53.64,0000 0000 0000 0000 000000
2017-11-08 05:20:23,0.07,4.02,0.00,14.33,17.61,20.84,14.30,48.59,1012.23,2065.57,2261.44,2213.19,2506.83,599.68,611.00,53.69,0000 0000 0000 0000 000000
2017-11-08 05:25:24,0.06,4.02,0.00,14.33,17.61,20.84,14.26,48.70,1012.23,2065.39,2260.38,2212.58,2505.95,599.94,611.40,53.74,0000 0000 0000 0000 000000
2017-11-08 05:30:26,0.07,4.02,0.00,14.33,17.61,20.80,14.34,48.69,1012.23,2065.31,2259.31,2211.79,2504.95,599.64,610.99,53.79,0000 0000 0000 0000 000000
2017-11-08 05:35:27,0.16,4.03,0.00,14.35,17.61,20.80,14.32,48.64,1012.22,2065.38,2257.70,2210.68,2503.62,599.93,611.09,53.84,0000 0000 0000 0000 000000
2017-11-08 05:40:28,0.12,4.04,0.00,14.34,17.61,20.76,14.31,48.54,1012.05,2065.39,2256.14,2209.41,2502.14,600.25,611.44,53.90,0000 0000 0000 0000 000000
2017-11-08 05:45:30,0.16,4.05,0.00,14.36,17.62,20.78,14.38,48.38,1012.12,2065.59,2254.56,2208.29,2500.74,600.33,611.57,53.95,0000 0000 0000 0000 000000
2017-11-08 05:50:31,0.15,4.05,0.00,14.38,17.62,20.82,14.31,48.48,1012.05,2065.62,2252.95,2206.95,2499.22,600.28,611.44,54.00,0000 0000 0000 0000 000000
2017-11-08 05:55:32,0.16,4.06,0.00,14.39,17.62,20.78,14.36,48.74,1012.02,2065.66,2251.30,2205.38,2497.39,600.01,611.21,54.05,0000 0000 0000 0000 000000
2017-11-08 06:00:34,0.16,4.07,0.00,14.40,17.62,20.80,14.34,48.50,1011.96,2065.52,2249.69,2203.78,2495.70,599.94,610.94,54.10,0000 0000 0000 0000 000000
2017-11-08 06:05:35,0.14,4.08,0.00,14.40,17.62,20.75,14.34,48.50,1012.05,2065.70,2248.07,2202.46,2494.24,599.97,611.08,54.15,0000 0000 0000 0000 000000
2017-11-08 06:10:37,0.11,4.08,0.00,14.41,17.62,20.76,14.35,48.56,1011.96,2065.63,2246.63,2201.32,2492.77,599.95,610.92,54.20,0000 0000 0000 0000 000000
2017-11-08 06:15:38,0.09,4.09,0.00,14.41,17.62,20.80,14.32,48.63,1012.10,2065.41,2245.38,2200.20,2491.55,600.10,611.08,54.25,0000 0000 0000 0000 000000
2017-11-08 06:20:40,0.09,4.09,0.00,14.40,17.63,20.80,14.28,48.41,1012.18,2065.34,2244.19,2199.26,2490.41,599.90,611.07,54.30,0000 0000 0000 0000 000000
2017-11-08 06:25:41,0.12,4.10,0.00,14.41,17.64,20.76,14.32,48.49,1012.16,2065.39,2243.00,2198.31,2489.30,599.80,611.01,54.35,0000 0000 0000 0000 000000
2017-11-08 06:30:42,0.09,4.10,0.00,14.41,17.64,20.80,14.29,48.44,1012.21,2065.41,2241.90,2197.42,2488.19,599.80,610.98,54.40,0000 0000 0000 0000 000000
2017-11-08 06:35:44,0.08,4.11,0.00,14.41,17.64,20.83,14.29,48.58,1012.20,2065.22,2240.61,2196.44,2487.03,599.61,610.85,54.45,0000 0000 0000 0000 000000
2017-11-08 06:40:45,0.11,4.12,0.00,14.41,17.64,20.82,14.32,48.42,1012.22,2065.18,2239.26,2195.36,2485.74,599.96,611.11,54.50,0000 0000 0000 0000 000000
2017-11-08 06:45:46,0.10,4.12,0.00,14.42,17.64,20.87,14.37,48.56,1012.22,2065.12,2238.05,2194.38,2484.52,600.27,611.45,54.55,0000 0000 0000 0000 000000
2017-11-08 06:50:48,0.13,4.13,0.00,14.41,17.64,20.82,14.29,48.67,1012.22,2065.16,2236.68,2193.39,2483.32,599.70,610.98,54.60,0000 0000 0000 0000 000000
2017-11-08 06:55:49,0.09,4.13,0.00,14.42,17.64,20.82,14.42,48.90,1012.22,2065.16,2235.66,2192.25,2481.99,600.11,611.31,54.65,0000 0000 0000 0000 000000
2017-11-08 07:00:50,0.11,4.14,0.00,14.41,17.64,20.80,14.28,48.57,1012.21,2065.09,2234.28,2191.28,2480.83,599.72,610.91,54.70,0000 0000 0000 0000 000000
2017-11-08 07:05:52,0.17,4.14,0.00,14.39,17.64,20.85,14.33,48.59,1012.22,2065.14,2232.66,2189.93,2479.38,600.00,611.22,54.75,0000 0000 0000 0000 000000
2017-11-08 07:10:53,0.13,4.15,0.00,14.40,17.64,20.83,14.30,48.53,1012.23,2065.19,2231.09,2188.67,2477.82,599.82,611.06,54.80,0000 0000 0000 0000 000000
2017-11-08 07:15:54,0.10,4.16,0.00,14.38,17.64,20.85,14.35,48.71,1012.23,2065.08,2229.70,2187.58,2476.47,600.14,611.34,54.86,0000 0000 0000 0000 000000
2017-11-08 07:20:55,0.11,4.17,0.00,14.35,17.64,20.84,14.39,48.82,1012.27,2065.07,2228.44,2186.47,2475.20,600.31,611.65,54.91,0000 0000 0000 0000 000000
2017-11-08 07:25:57,0.09,4.17,0.00,14.32,17.64,20.87,14.43,48.88,1012.29,2065.05,2227.28,2185.52,2473.95,600.12,611.53,54.96,0000 0000 0000 0000 000000
2017-11-08 07:30:58,0.14,4.18,0.00,14.30,17.64,20.85,14.34,48.88,1012.32,2065.09,2225.86,2184.42,2472.65,600.01,611.51,55.01,0000 0000 0000 0000 000000
2017-11-08 07:35:59,0.11,4.18,0.00,14.30,17.64,20.83,14.38,48.92,1012.30,2065.08,2224.43,2183.13,2471.36,600.10,611.62,55.06,0000 0000 0000 0000 000000
2017-11-08 07:41:01,0.10,4.19,0.00,14.27,17.64,20.82,14.37,49.06,1012.42,2065.05,2223.23,2182.12,2470.17,600.05,611.64,55.11,0000 0000 0000 0000 000000
2017-11-08 07:46:02,0.09,4.20,0.00,14.26,17.64,20.84,14.38,48.90,1012.38,2065.06,2222.03,2181.29,2469.12,600.01,611.68,55.16,0000 0000 0000 0000 000000
2017-11-08 07:51:04,0.12,4.20,0.00,14.24,17.64,20.87,14.39,48.98,1012.34,2065.08,2220.63,2180.33,2468.00,600.23,611.82,55.21,0000 0000 0000 0000 000000
2017-11-08 07:56:05,0.10,4.21,0.00,14.23,17.63,20.91,14.39,48.88,1012.37,2065.06,2219.32,2179.34,2466.90,600.00,611.70,55.26,0000 0000 0000 0000 000000
2017-11-08 08:01:07,0.08,4.21,0.00,14.20,17.62,20.95,14.38,48.80,1012.46,2065.06,2218.23,2178.72,2465.90,600.16,611.94,55.31,0000 0000 0000 0000 000000
2017-11-08 08:06:08,0.08,4.22,0.00,14.19,17.62,20.91,14.37,48.82,1012.68,2065.09,2217.09,2177.98,2464.93,599.93,611.96,55.36,0000 0000 0000 0000 000000
2017-11-08 08:11:10,0.10,4.22,0.00,14.16,17.62,20.90,14.38,48.75,1012.70,2065.12,2216.03,2177.14,2464.04,600.20,612.31,55.41,0000 0000 0000 0000 000000
2017-11-08 08:16:11,0.15,4.23,0.00,14.14,17.60,20.90,14.39,48.93,1012.65,2065.41,2214.82,2176.47,2462.97,599.88,611.91,55.46,0000 0000 0000 0000 000000
2017-11-08 08:21:12,0.15,4.23,0.00,14.12,17.59,20.90,14.40,48.98,1012.66,2065.62,2213.36,2175.35,2461.61,600.10,612.19,55.51,0000 0000 0000 0000 000000
2017-11-08 08:26:14,0.09,4.24,0.00,14.10,17.59,20.90,14.41,48.96,1012.71,2065.67,2212.10,2174.59,2460.49,600.01,612.24,55.56,0000 0000 0000 0000 000000
2017-11-08 08:31:15,0.11,4.25,0.00,14.08,17.57,20.97,14.40,48.99,1012.71,2065.83,2210.83,2173.76,2459.50,600.10,612.27,55.61,0000 0000 0000 0000 000000
2017-11-08 08:36:16,0.09,4.25,0.00,14.06,17.57,20.91,14.34,48.92,1012.70,2065.71,2209.47,2172.91,2458.28,600.15,612.37,55.67,0000 0000 0000 0000 000000
2017-11-08 08:41:18,0.10,4.26,0.00,14.04,17.55,20.90,14.30,48.96,1012.71,2065.80,2208.54,2172.15,2457.55,599.64,611.83,55.72,0000 0000 0000 0000 000000
2017-11-08 08:46:19,0.08,4.26,0.00,14.03,17.54,20.90,14.42,48.94,1012.71,2065.85,2207.50,2171.57,2456.67,600.04,612.22,55.77,0000 0000 0000 0000 000000
2017-11-08 08:51:20,0.06,4.26,0.00,14.01,17.53,20.91,14.43,49.03,1012.71,2065.88,2206.32,2170.98,2455.84,600.23,612.52,55.82,0000 0000 0000 0000 000000
2017-11-08 08:56:21,0.10,4.27,0.00,13.99,17.52,20.91,14.34,49.06,1012.71,2065.94,2205.32,2170.15,2454.87,599.87,612.24,55.87,0000 0000 0000 0000 000000
2017-11-08 09:01:22,0.09,4.28,0.00,13.97,17.51,20.90,14.38,49.23,1012.70,2065.97,2204.24,2169.35,2453.96,599.89,612.27,55.92,0000 0000 0000 0000 000000
2017-11-08 09:06:24,0.08,4.28,0.00,13.94,17.49,20.92,14.38,49.23,1012.71,2065.99,2203.14,2168.72,2453.03,599.95,612.43,55.97,0000 0000 0000 0000 000000
2017-11-08 09:11:25,0.08,4.28,0.00,13.92,17.48,20.95,14.40,49.22,1012.71,2065.98,2201.93,2167.95,2452.05,599.98,612.47,56.02,0000 0000 0000 0000 000000
2017-11-08 09:16:26,0.11,4.29,0.00,13.89,17.47,20.94,14.35,49.02,1012.71,2065.99,2200.64,2167.08,2451.06,600.11,612.69,56.07,0000 0000 0000 0000 000000
2017-11-08 09:21:27,0.10,4.29,0.00,13.89,17.45,20.87,14.48,49.02,1012.74,2065.99,2199.50,2166.35,2450.11,600.20,612.74,56.12,0000 0000 0000 0000 000000
2017-11-08 09:26:28,0.08,4.30,0.00,13.88,17.44,20.89,14.38,49.08,1012.72,2065.99,2198.43,2165.72,2449.20,600.09,612.61,56.17,0000 0000 0000 0000 000000
2017-11-08 09:31:30,0.08,4.30,0.00,13.86,17.42,20.87,14.42,49.08,1012.73,2066.00,2197.25,2164.99,2448.27,599.95,612.60,56.22,0000 0000 0000 0000 000000
2017-11-08 09:36:31,0.10,4.31,0.00,13.84,17.42,20.80,14.35,49.06,1012.88,2066.00,2196.05,2164.17,2447.33,599.91,612.69,56.27,0000 0000 0000 0000 000000
2017-11-08 09:41:32,0.07,4.31,0.00,13.83,17.39,20.82,14.47,49.14,1013.03,2066.01,2194.92,2163.80,2446.53,600.23,613.13,56.32,0000 0000 0000 0000 000000
2017-11-08 09:46:33,0.10,4.32,0.00,13.82,17.38,20.82,14.46,49.03,1013.13,2066.03,2193.72,2163.04,2445.61,600.10,613.06,56.37,0000 0000 0000 0000 000000
2017-11-08 09:51:35,0.11,4.32,0.00,13.81,17.37,20.81,14.38,49.02,1013.11,2066.04,2192.44,2162.28,2444.63,599.65,612.58,56.42,0000 0000 0000 0000 000000
2017-11-08 09:56:36,0.09,4.33,0.00,13.79,17.35,20.77,14.38,49.00,1013.15,2066.14,2191.04,2161.78,2443.72,599.80,612.87,56.47,0000 0000 0000 0000 000000
2017-11-08 10:01:37,0.12,4.33,0.00,13.79,17.34,20.73,14.52,49.11,1013.08,2066.29,2189.64,2160.97,2442.62,600.40,613.48,56.52,0000 0000 0000 0000 000000
2017-11-08 10:06:39,0.13,4.34,0.00,13.78,17.32,20.75,14.41,48.91,1013.18,2066.44,2188.45,2160.11,2441.62,600.18,613.37,56.57,0000 0000 0000 0000 000000
2017-11-08 10:11:40,0.13,4.35,0.00,13.77,17.31,20.72,14.36,49.08,1013.20,2066.69,2186.95,2159.48,2440.40,599.90,613.09,56.63,0000 0000 0000 0000 000000
2017-11-08 10:16:42,0.08,4.35,0.00,13.77,17.29,20.65,14.37,49.04,1013.20,2066.82,2185.77,2158.98,2439.69,600.08,613.15,56.68,0000 0000 0000 0000 000000
2017-11-08 10:21:43,0.12,4.36,0.00,13.77,17.29,20.62,14.41,49.17,1013.18,2066.93,2184.53,2158.28,2438.73,600.22,613.28,56.73,0000 0000 0000 0000 000000
2017-11-08 10:26:44,0.09,4.36,0.00,13.76,17.27,20.65,14.35,49.26,1013.17,2066.97,2183.32,2157.65,2437.77,599.74,612.87,56.78,0000 0000 0000 0000 000000
2017-11-08 10:31:46,0.08,4.37,0.00,13.77,17.26,20.58,14.43,49.22,1013.19,2066.97,2181.92,2157.00,2436.85,599.68,612.86,56.83,0000 0000 0000 0000 000000
2017-11-08 10:36:47,0.11,4.37,0.00,13.77,17.24,20.57,14.43,49.35,1013.20,2066.98,2180.58,2156.27,2435.86,600.04,613.18,56.88,0000 0000 0000 0000 000000
2017-11-08 10:41:48,0.08,4.38,0.00,13.77,17.24,20.51,14.41,49.29,1013.21,2066.99,2179.31,2155.77,2434.89,600.08,613.23,56.93,0000 0000 0000 0000 000000
2017-11-08 10:46:49,0.08,4.38,0.00,13.77,17.22,20.48,14.36,49.31,1013.22,2066.99,2177.92,2155.04,2433.98,600.17,613.33,56.98,0000 0000 0000 0000 000000
2017-11-08 10:51:51,0.12,4.39,0.00,13.76,17.22,20.46,14.40,49.33,1013.23,2066.99,2176.43,2154.28,2432.94,600.02,613.20,57.03,0000 0000 0000 0000 000000
2017-11-08 10:56:52,0.10,4.39,0.00,13.75,17.21,20.48,14.42,49.38,1013.26,2066.99,2174.99,2153.58,2431.81,600.11,613.34,57.08,0000 0000 0000 0000 000000
2017-11-08 11:01:53,0.11,4.40,0.00,13.74,17.19,20.50,14.42,49.33,1013.41,2066.99,2173.56,2152.74,2430.67,599.77,613.18,57.13,0000 0000 0000 0000 000000
2017-11-08 11:06:55,0.09,4.40,0.00,13.73,17.19,20.46,14.49,49.36,1013.31,2067.00,2172.14,2151.98,2429.61,600.16,613.52,57.18,0000 0000 0000 0000 000000
2017-11-08 11:11:57,0.11,4.41,0.00,13.72,17.18,20.49,14.44,49.21,1013.32,2067.00,2170.85,2151.16,2428.60,599.93,613.24,57.23,0000 0000 0000 0000 000000
2017-11-08 11:16:58,0.12,4.42,0.00,13.73,17.17,20.46,14.40,49.23,1013.29,2067.00,2169.44,2150.36,2427.36,599.96,613.36,57.28,0000 0000 0000 0000 000000
2017-11-08 11:21:59,0.12,4.42,0.00,13.72,17.17,20.45,14.42,49.23,1013.32,2067.00,2167.89,2149.18,2425.99,599.97,613.29,57.33,0000 0000 0000 0000 000000
2017-11-08 11:27:00,0.12,4.43,0.00,13.72,17.14,20.40,14.39,49.15,1013.38,2067.00,2166.53,2148.52,2424.86,600.16,613.53,57.38,0000 0000 0000 0000 000000
2017-11-08 11:32:02,0.08,4.43,0.00,13.71,17.14,20.45,14.39,49.22,1013.45,2067.01,2165.13,2147.79,2423.93,599.77,613.17,57.43,0000 0000 0000 0000 000000
2017-11-08 11:37:03,0.10,4.44,0.00,13.71,17.14,20.39,14.45,49.23,1013.53,2067.01,2163.80,2147.04,2422.99,600.36,613.78,57.49,0000 0000 0000 0000 000000
2017-11-08 11:42:05,0.11,4.44,0.00,13.70,17.12,20.42,14.37,49.27,1013.57,2067.01,2162.52,2146.35,2422.01,599.99,613.48,57.54,0000 0000 0000 0000 000000
2017-11-08 11:47:06,0.08,4.45,0.00,13.71,17.12,20.36,14.38,49.17,1013.65,2067.01,2161.19,2145.76,2421.06,599.90,613.44,57.59,0000 0000 0000 0000 000000
2017-11-08 11:52:08,0.11,4.45,0.00,13.70,17.11,20.37,14.38,49.18,1013.65,2067.03,2159.79,2144.97,2420.06,600.01,613.45,57.64,0000 0000 0000 0000 000000
2017-11-08 11:57:09,0.10,4.46,0.00,13.69,17.09,20.36,14.40,49.21,1013.69,2067.02,2158.41,2144.11,2419.00,600.06,613.66,57.69,0000 0000 0000 0000 000000
2017-11-08 12:02:10,0.11,4.47,0.00,13.69,17.09,20.34,14.42,49.19,1013.69,2067.03,2157.01,2143.44,2417.98,600.24,613.65,57.74,0000 0000 0000 0000 000000
2017-11-08 12:07:12,0.13,4.47,0.00,13.68,17.09,20.31,14.38,49.28,1013.68,2067.08,2155.47,2142.60,2416.83,600.16,613.74,57.79,0000 0000 0000 0000 000000
2017-11-08 12:12:13,0.09,4.48,0.00,13.69,17.07,20.33,14.34,49.44,1013.64,2067.13,2154.12,2141.87,2415.81,599.80,613.50,57.84,0000 0000 0000 0000 000000
2017-11-08 12:17:14,0.14,4.48,0.00,13.68,17.07,20.29,14.41,49.48,1013.66,2067.23,2152.63,2140.98,2414.60,600.26,613.95,57.89,0000 0000 0000 0000 000000
2017-11-08 12:22:16,0.13,4.49,0.00,13.67,17.07,20.28,14.40,49.29,1013.63,2067.39,2151.22,2140.06,2413.51,599.96,613.53,57.94,0000 0000 0000 0000 000000
2017-11-08 12:27:17,0.15,4.50,0.00,13.67,17.06,20.26,14.41,49.38,1013.65,2067.55,2149.56,2139.04,2412.23,599.89,613.58,57.99,0000 0000 0000 0000 000000
2017-11-08 12:32:19,0.13,4.51,0.00,13.67,17.05,20.21,14.39,49.40,1013.68,2067.67,2147.96,2138.12,2411.00,599.84,613.41,58.04,0000 0000 0000 0000 000000
2017-11-08 12:37:20,0.12,4.51,0.00,13.67,17.04,20.23,14.46,49.25,1013.65,2067.72,2146.50,2137.30,2409.89,600.26,613.83,58.09,0000 0000 0000 0000 000000
2017-11-08 12:42:21,0.16,4.52,0.00,13.67,17.04,20.24,14.42,49.08,1013.69,2067.90,2144.71,2136.33,2408.63,600.39,614.09,58.14,0000 0000 0000 0000 000000
2017-11-08 12:47:22,0.14,4.53,0.00,13.68,17.04,20.20,14.40,48.98,1013.69,2067.94,2142.84,2135.18,2407.22,599.61,613.25,58.19,0000 0000 0000 0000 000000
2017-11-08 12:52:24,0.12,4.53,0.00,13.67,17.04,20.19,14.42,49.10,1013.70,2067.93,2141.44,2134.23,2405.92,599.94,613.66,58.24,0000 0000 0000 0000 000000
2017-11-08 12:57:25,0.15,4.54,0.00,13.66,17.03,20.20,14.39,49.11,1013.71,2067.95,2139.71,2133.10,2404.49,599.81,613.52,58.29,0000 0000 0000 0000 000000